Regional Weather Roundup
Issued by NWS Charleston, SC

Current Version | Previous Version | Text Only | Print | Product List | Glossary Off
Versions: 1 2 3 4 5 6 7 8 9 10 11 12 13 14 15 16 17 18 19 20 21 22 23 24 25 26 27 28 29 30 31 32 33 34 35 36 37 38 39 40 41 42 43 44 45 46 47 48 49 50

000
ASUS42 KCHS 020425
RWRCHS

REGIONAL WEATHER ROUNDUP
NATIONAL WEATHER SERVICE CHARLESTON SC
1200 AM EDT SAT AUG 02 2014

NOTE: "FAIR" INDICATES FEW OR NO CLOUDS BELOW 12,000 FEET WITH NO
SIGNIFICANT WEATHER AND/OR OBSTRUCTIONS TO VISIBILITY.

NOT ALL STATIONS ARE QUALITY CONTROLLED BY THE NATIONAL
WEATHER SERVICE. USE DATA WITH CAUTION...ESPECIALLY
DEWPOINT OBSERVATIONS.

SCZ027-030-031-034>040-042>050-020500-
...SOUTH CAROLINA...

CITY           SKY/WX    TMP DP  RH WIND       PRES   REMARKS
N CHARLESTON   PTCLDY    77  73  87 CALM      30.03F
WATERFRONT PRK   N/A     81 N/A N/A CALM        N/A
FORT JOHNSON   NOT AVBL
MOUNT PLEASANT FAIR      73  73 100 CALM      30.04S FOG
JOHNS ISLAND   CLEAR     75  68  78 CALM      30.03F
PINOPOLIS        N/A     81  73  78 S2        29.98R
MONCKS CORNER  NOT AVBL
SUMMERVILLE    FAIR      75  73  94 CALM      30.04F
BEAUFORT MCAS  CLOUDY    78  75  90 E5        30.01F
BEAUFORT ARPT  FAIR      79  77  94 NE8       30.01F
HILTON HEAD IS CLOUDY    77  75  94 CALM      30.03R
GEORGETOWN     NOT AVBL
WALTERBORO     MOCLDY    73 N/A N/A NE5       30.03F
ORANGEBURG     MOCLDY    73  70  90 NE5       30.06R
BARNWELL       CLOUDY    72  70  94 N5        30.06S
AIKEN          CLOUDY    68  68 100 N7        30.11S
MANNING        FAIR      73 N/A N/A N3        30.05S
KINGSTREE      NOT AVBL
COLUMBIA       CLOUDY    73  67  81 N3        30.06S
SUMTER         CLOUDY    73  71  96 NE10      30.05R
FLORENCE       CLOUDY    72  69  90 N7        30.07R
MYRTLE BEACH   CLOUDY    77  73  88 CALM      30.04F
N MYRTLE BEACH MOCLDY    76  73  91 CALM      30.05R

$$

GAZ063-065-086>088-099>101-113>116-118-119-134-136>141-150-020500-
...GEORGIA...

CITY           SKY/WX    TMP DP  RH WIND       PRES   REMARKS
SAVANNAH ARPT  CLOUDY    77  74  90 N5        30.02S
HUNTER AAF     CLOUDY    77  75  94 SE8       29.99F
FORT STEWART   CLOUDY    77  75  94 CALM      30.01R THUNDER
STATESBORO     NOT AVBL
SYLVANIA       MOCLDY    74  74  98 CALM      30.05R
CLAXTON        CLOUDY   N/A N/A N/A NE5       30.02S HAZE
THOMSON        CLOUDY    70  70  98 NE3       30.12F
AUGUSTA-BUSH   CLOUDY    71  67  87 N6        30.06S
AUGUSTA-DANIEL CLOUDY    70  67  90 N8        30.08S
SWAINSBORO     MOCLDY    73  73 100 NE7       30.06R
VIDALIA          N/A     77  73  88 NE8       30.02F
ALMA           CLOUDY    75  73  93 CALM      30.00F FOG
WAYCROSS       MOCLDY    78  77  95 E3        29.99S
JESUP          FAIR      79  77  94 CALM      30.00S FOG
BRUNSWICK      MOCLDY    77  73  88 CALM      30.01R
SAINT SIMONS   PTCLDY    83  75  77 S7        29.99S HX  90

$$

SCZ027-028-034-036>038-045-046-048>050-GAZ119-141-020500-
...LAKE AND SUPPLEMENTAL COASTAL OBSERVATIONS...

STATION/POSITION TIME  TEMP    WIND        PRES    WAVE   SWELL
                       AIR SEA DIR/SP/G            HT/PER HT/PER/DIR
                 (UTC) (F)     (DEG/KT/KT) (MB)    (FT/S) (FT/S/D)
UPR LAKE MARION  NOT AVBL
WINYAH BAY       0400   78     110/  6     1017.0S
LAKE MURRAY      0300   69     330/  3/  7 1017.9S
ACE BASIN NERRS  0400   75        CALM     1017.0S
FORT PULASKI     0400   75      90/  3/  4 1016.1
SAPELO ISLAND    0400   82     190/  6     1016.0S

$$

ANZ835-935-AMZ111-154-330-350-352-354-374-450-454-472-020500-
...C-MAN AND BUOY OBSERVATIONS...

STATION/POSITION TIME  TEMP    WIND        PRES    WAVE   SWELL
                       AIR SEA DIR/SP/G            HT/PER HT/PER/DIR
                 (UTC) (F)     (DEG/KT/KT) (MB)    (FT/S) (FT/S/D)
FOLLY BEACH CMAN 0400   78     330/  3/  3 1017.3F
BUOY 41004       0400   82 82  180/  8/ 10 1016.2F   4/ 6   3/ 6
BUOY 41008       0400   84 85  150/ 12/ 14 1015.6R   3/ 5   2/ 70/ 7
5E ST. MARYS GA  0400      85                N/A     3/ 4
FRYING PAN BUOY  NOT AVBL
BUOY 41025       0400          VRB 12/ 14  1018.6F   4/ 6   3/120/ 6
CAPE LOOKOUT NC  0400   79     150/  9/ 10 1018.0S
BUOY 41002       0340   81 81  150/ 17/ 21 1018.9F   4/ 6   2/130/ 8
BUOY 41010       0400   83 84  120/ 14/ 17 1016.4R   3/ 7   2/ 80/ 7
BUOY 41012       NOT AVBL
ST AUGUSTINE FL  0400   81     180/ 10/ 11 1016.4R
CAPERS NEARSHORE 0300   79      CALM  /  4   N/A
FRIPP NEARSHORE  NOT AVBL


$$



USA.gov is the U.S. government's official web portal to all federal, state and local government web resources and services.